Погода в Железнодорожном

Россия / Республика Крым     44°43′08″N   33°48′07″E
темп.,
°C
ветер,
м/с
пор.,
м/с
влажн.,
%
обл.,
%
осадки,
мм/ч
давл.,
гПа
погр.,
м
22 апреля, чт
чт2200:00+7ю22795 0.0 102113
03:00+7ююв22875 0.0 102118
06:00+6ююв22869 0.0 102212
09:00+12юз34665 0.0 1022573
12:00+14зюз555724 0.0 10231156
15:00+15зюз56565 0.0 10231025
18:00+13зюз45630 0.0 1023530
21:00+9ююв22760 0.0 102315
23 апреля, пт
пт2300:00+8ююв22750 0.0 102315
03:00+8юв2274100 0.0 102216
06:00+8юв227283 0.0 102219
09:00+14ююв3452100 0.0 1021525
12:00+17ю5639100 0.0 10201317
15:00+18ю5636100 0.0 10181284
18:00+14ю4854100 0.0 1018450
21:00+10юв35625 0.0 101985
24 апреля, сб
сб2400:00+9ю32715 0.0 101938
03:00+8ю228399 0.0 101938
06:00+8зсз239498 0.0 1020135
09:00+10ссз337676 0.0 1021677
12:00+13сз44570 0.0 10211074
15:00+13сз65505 0.0 1021969
18:00+10сз5662100 0.0 1022586
21:00+7с2273100 0.0 102441
25 апреля, вс
вс2500:00+6св227091 0.0 102433
03:00+5в226987 0.0 102319
06:00+4в2263100 0.0 102322
09:00+9св4642100 0.0 1022759
12:00+11ссв4439100 0.0 10211070
15:00+12ссв3340100 0.0 10201371
18:00+11ссв3446100 0.0 10201275
21:00+7всв0163100 0.0 102110
26 апреля, пн
пн2600:00+5вюв2267100 0.0 102111
03:00+5в22566 0.0 102210
06:00+4в22565 0.0 102212
09:00+10ссз22445 0.0 1023533
12:00+13сз33543 0.0 10221149
15:00+14сз43541 0.0 10211168
18:00+11сз43623 0.0 1020506
21:00+7юз007654 0.0 102110